This demonstration page uses our WeatherBlox Daily Observations layout. Learn more.

Left ArrowRight Arrow

39.08367, -84.50855

Hourly Observations for July 12, 2017

Temp ( °F °C ) Dew Point ( °F °C ) Humidity (%) Winds ( mph kmh ) Pressure ( in mb ) Visibility ( mi km ) Precip ( " mm )
12:09 am 00:09 Clear with Mist and Fog 71 21.7 71 21.7 100 100 N N/A 30.03 1017 1.75 2.816345 N/A
12:26 am 00:26 Mostly Cloudy with Fog 70 21.1 70 21.1 100 100 N N/A 30.03 1017 0.5 0.80467 N/A
12:36 am 00:36 Mostly Cloudy with Fog 71 21.7 71 21.7 100 100 N N/A 30 1016 0.25 0.402335 N/A
12:53 am 00:53 Mostly Cloudy with Fog 70 21.1 70 21.1 100 100 N N/A 30.03 1017 0.25 0.402335 N/A
1:21 am 01:21 Mostly Cloudy with Mist and Fog 70 21.1 70 21.1 100 100 N N/A 30 1016 1 1.60934 N/A
1:33 am 01:33 Mostly Cloudy with Fog 68 20 68 20 100 100 N N/A 30 1016 0.25 0.402335 N/A
1:53 am 01:53 Mostly Cloudy with Fog 69 20.6 69 20.6 100 100 N N/A 30.04 1017 0.25 0.402335 N/A
1:59 am 01:59 Mostly Cloudy with Mist and Fog 69 20.6 69 20.6 100 100 N N/A 30.03 1017 1 1.60934 N/A
2:03 am 02:03 Mostly Cloudy with Fog 67 19.4 67 19.4 100 100 N N/A 30.03 1017 0.25 0.402335 N/A
2:15 am 02:15 Mostly Cloudy with Fog 68 20 68 20 100 100 N N/A 30.03 1017 0.25 0.402335 N/A
2:53 am 02:53 Mostly Cloudy with Fog 68 20 68 20 100 100 N N/A 30.04 1017 0.25 0.402335 N/A
3:53 am 03:53 Mostly Cloudy with Fog 69 20.6 69 20.6 100 100 N N/A 30.01 1016 0.25 0.402335 N/A
4:53 am 04:53 Mostly Cloudy with Fog 68 20 68 20 100 100 N N/A 30.03 1017 0.25 0.402335 N/A
5:46 am 05:46 Mostly Cloudy with Fog 68 20 68 20 100 100 N N/A 30.03 1017 0.5 0.80467 N/A
5:53 am 05:53 Mostly Cloudy with Mist and Fog 67 19.4 67 19.4 100 100 N N/A 30.04 1017 0.75 1.207005 N/A
6:12 am 06:12 Mostly Cloudy with Fog 69 20.6 69 20.6 100 100 N N/A 30.03 1017 0.25 0.402335 N/A
6:53 am 06:53 Partly Cloudy with Patchy Fog 68 20 68 20 100 100 NNE 3 6 30.06 1018 5 8.0467 N/A
7:53 am 07:53 Sunny with Mist and Fog 70 21.1 70 21.1 100 100 N N/A 30.06 1018 6 9.65604 N/A
8:53 am 08:53 Sunny with Mist and Fog 74 23.3 73 22.8 97 97 N N/A 30.07 1018 6 9.65604 N/A
9:53 am 09:53 Sunny 80 26.7 73 22.8 79 79 S 9 15 30.06 1018 10 16.0934 N/A
10:53 am 10:53 Sunny 82 27.8 74 23.3 77 77 S 7 11 30.07 1018 10 16.0934 N/A
11:53 am 11:53 Sunny 86 30 74 23.3 67 67 SSW 9 15 30.07 1018 10 16.0934 N/A
12:53 pm 12:53 Sunny 87 30.6 72 22.2 61 61 SW 13 20 30.05 1018 10 16.0934 N/A
1:53 pm 13:53 Mostly Sunny 87 30.6 73 22.8 63 63 SSW 15 24 30.05 1018 10 16.0934 N/A
2:53 pm 14:53 Partly Cloudy 88 31.1 74 23.3 63 63 SSW 16 26 30.04 1017 10 16.0934 N/A
3:53 pm 15:53 Mostly Cloudy 88 31.1 74 23.3 63 63 SW 10 17 30.04 1017 10 16.0934 N/A
4:53 pm 16:53 Mostly Sunny 89 31.7 74 23.3 61 61 SW 12 19 30.02 1017 10 16.0934 N/A
5:53 pm 17:53 Mostly Cloudy 88 31.1 75 23.9 66 66 SSW 13 20 30.01 1016 10 16.0934 N/A
6:53 pm 18:53 Sunny 84 28.9 75 23.9 74 74 S 10 17 30 1016 10 16.0934 N/A
7:53 pm 19:53 Sunny 82 27.8 76 24.4 82 82 S 9 15 29.98 1015 10 16.0934 N/A
8:53 pm 20:53 Sunny 80 26.7 76 24.4 87 87 S 7 11 29.97 1015 10 16.0934 N/A
9:53 pm 21:53 Clear 81 27.2 75 23.9 82 82 SSW 5 7 30.01 1016 10 16.0934 N/A
10:53 pm 22:53 Clear 79 26.1 75 23.9 88 88 SSW 3 6 30.03 1017 10 16.0934 N/A
11:53 pm 23:53 Clear 77 25 75 23.9 94 94 SW 6 9 30.02 1017 10 16.0934 N/A

Powered by AerisWeather